Regional Weather Roundup
Issued by NWS Cleveland, OH

Home | Current Version | Previous Version | Text Only | Print | Product List | Glossary On
Versions: 1 2 3 4 5 6 7 8 9 10 11 12 13 14 15 16 17 18 19 20 21 22 23 24 25 26 27 28 29 30 31 32 33 34 35 36 37 38 39 40 41 42 43 44 45 46 47 48 49 50
000
ASUS41 KCLE 251312
RWRCLE
OHIO REGIONAL WEATHER ROUNDUP
NATIONAL WEATHER SERVICE WILMINGTON, OH
900 AM EDT TUE APR 25 2017

NOTE: "FAIR" INDICATES FEW OR NO CLOUDS BELOW 12,000 FEET WITH NO
SIGNIFICANT WEATHER AND/OR OBSTRUCTIONS TO VISIBILITY.

OHZ001>008-015>018-024>027-034-035-043-044-251400-
   NORTHWEST OHIO

CITY           SKY/WX    TMP DP  RH WIND       PRES   REMARKS
DEFIANCE       PTSUNNY   56  47  71 SE8       29.84S
FINDLAY        CLOUDY    57  46  66 SE8       29.84S
TOLEDO EXPRESS CLOUDY    55  48  77 E7        29.85S
TOLEDO EXEC    CLOUDY    56  51  84 E8        29.87R
LIMA           CLOUDY    56  49  77 SE9       29.84R
$$

OHZ009>014-019>023-028>033-038-089-251400-
   NORTHEAST OHIO

CITY           SKY/WX    TMP DP  RH WIND       PRES   REMARKS
CLE-HOPKINS    LGT RAIN  57  48  72 SE9       29.91R
CLE-LAKEFRONT  LGT RAIN  55  48  77 SE8       29.88R
CUY CO. ARPT   LGT RAIN  55  48  76 SE12G21   29.90S
LORAIN-ELYRIA  CLOUDY    56  46  69 SE9       29.89R
ASHTABULA      CLOUDY    56  43  61 SE12      29.94S
AKRON-CANTON   LGT RAIN  53  48  83 E13       29.90S
WOOSTER        CLOUDY    53  48  83 SE13      29.89S
MANSFIELD      CLOUDY    54  47  77 E14       29.86S
YOUNGSTOWN     LGT RAIN  51  46  83 E9        29.94R
$$

OHZ042-051>053-060>062-070>072-077>081-251400-
  SOUTHWEST OHIO

CITY           SKY/WX    TMP DP  RH WIND       PRES   REMARKS
CINC-COVINGTON FAIR      58  51  78 E7        29.81S
CINC-LUNKEN    FAIR      58  53  84 CALM      29.83S
HAMILTON       FAIR      58  51  78 E6        29.83S
DAYTON         FAIR      56  49  77 E9        29.83S
WRIGHT-PAT AFB FAIR      55  51  87 NE3       29.83S
DAYTON GENERAL FAIR      56  49  77 E8        29.82R
WILMINGTON     FAIR      57  50  77 E9        29.83R
$$

OHZ036-037-039>041-045>050-054>059-063>069-073>076-082>088-251400-
  CENTRAL AND SOUTHEAST OHIO

CITY           SKY/WX    TMP DP  RH WIND       PRES   REMARKS
COLUMBUS       CLOUDY    58  49  72 E8        29.85R
OSU AIRPORT    CLOUDY    57  50  77 E6        29.85R
BOLTON FIELD   CLOUDY    55  48  76 E7        29.85S
RICKENBACK AFB CLOUDY    56  49  76 E5        29.84R
NEWARK         CLOUDY    57  48  72 E9        29.85S
MARION         CLOUDY    57  47  69 SE13      29.86S
LANCASTER      PTSUNNY   60  50  69 E9        29.84F
ZANESVILLE     FAIR      56  49  77 E9        29.87R
NEW PHILLY     LGT RAIN  53  51  93 SE10      29.90S
$$



USA.gov is the U.S. government's official web portal to all federal, state and local government web resources and services.